Вернуться в каталог

STARLINK-36794

АктивенСвязьVLEO
NORAD 68955·PAYLOAD·🇺🇸 United States

Запущен May 1, 2026 с Cape Canaveral Space Force Station

Loading…

Ближайшие Пролёты (ближайшие 24 часа)

TLE

СвежийSource: CelesTrak SupGP

Эпоха: Sep 15, 2026, 04:25 UTC

1 68955C 26099E   26258.18451389 -.00019264  00000+0 -56924-3 0  2581
2 68955  53.1573 100.8368 0001213  86.2962 343.5692 15.34396622    19

Отслеживайте STARLINK-36794 в реальном времени с AllMySat

Download on the App Store